�������l�o���
Date,Time,MP-1(��Sv/h),MP-2(��Sv/h),MP-3(��Sv/h),MP-4(��Sv/h),MP-5(��Sv/h),MP-6(��Sv/h),MP-7(��Sv/h),����,����(m/s),���J
2018/02/05,00:00,0.335,0.204,0.335,0.318,0.303,0.169,0.101,�k�k��,7.3,��
2018/02/05,00:10,0.335,0.203,0.334,0.318,0.302,0.168,0.102,�k�k��,4.7,��
2018/02/05,00:20,0.335,0.204,0.334,0.319,0.302,0.168,0.101,�k�k��,4.9,��
2018/02/05,00:30,0.337,0.204,0.334,0.318,0.302,0.168,0.101,�k�k��,5.7,��
2018/02/05,00:40,0.335,0.203,0.334,0.317,0.302,0.168,0.101,�k�k��,7.6,��
2018/02/05,00:50,0.335,0.203,0.334,0.316,0.301,0.168,0.101,�k�k��,8.1,��
2018/02/05,01:00,0.335,0.203,0.335,0.318,0.302,0.169,0.101,�k�k��,8.7,��
2018/02/05,01:10,0.337,0.204,0.335,0.318,0.302,0.168,0.101,�k,7.0,��
2018/02/05,01:20,0.334,0.205,0.334,0.317,0.302,0.168,0.101,�k,6.7,��
2018/02/05,01:30,0.335,0.203,0.334,0.318,0.303,0.168,0.101,�k,7.4,��
2018/02/05,01:40,0.335,0.203,0.333,0.318,0.304,0.168,0.101,�k,6.8,��
2018/02/05,01:50,0.336,0.204,0.334,0.319,0.303,0.168,0.101,�k,7.6,��
2018/02/05,02:00,0.334,0.203,0.335,0.317,0.302,0.168,0.101,�k,8.4,��
2018/02/05,02:10,0.337,0.203,0.335,0.317,0.302,0.168,0.101,�k�k��,6.4,��
2018/02/05,02:20,0.335,0.205,0.334,0.317,0.302,0.168,0.101,�k,7.0,��
2018/02/05,02:30,0.337,0.204,0.334,0.318,0.303,0.169,0.102,�k�k��,4.8,��
2018/02/05,02:40,0.334,0.203,0.335,0.318,0.302,0.167,0.101,�k�k��,4.1,��
2018/02/05,02:50,0.335,0.204,0.335,0.317,0.302,0.169,0.101,�k�k��,4.3,��
2018/02/05,03:00,0.335,0.204,0.334,0.318,0.302,0.167,0.101,�k�k��,5.1,��
2018/02/05,03:10,0.335,0.203,0.334,0.318,0.302,0.167,0.101,�k�k��,6.0,��
2018/02/05,03:20,0.336,0.203,0.335,0.318,0.303,0.168,0.101,�k�k��,6.4,��
2018/02/05,03:30,0.335,0.203,0.335,0.318,0.302,0.168,0.100,�k�k��,5.0,��
2018/02/05,03:40,0.336,0.204,0.334,0.318,0.302,0.168,0.102,�k�k��,3.5,��
2018/02/05,03:50,0.336,0.203,0.335,0.318,0.301,0.168,0.102,�k,3.1,��
2018/02/05,04:00,0.336,0.203,0.335,0.319,0.301,0.168,0.101,�k,3.5,��
2018/02/05,04:10,0.336,0.203,0.335,0.317,0.302,0.167,0.101,�k,3.6,��
2018/02/05,04:20,0.335,0.203,0.335,0.318,0.302,0.167,0.101,�k,4.5,��
2018/02/05,04:30,0.335,0.203,0.334,0.317,0.301,0.170,0.101,�k,3.0,��
2018/02/05,04:40,0.335,0.204,0.334,0.318,0.301,0.167,0.101,�k,3.7,��
2018/02/05,04:50,0.334,0.204,0.334,0.317,0.301,0.168,0.102,�k�k��,0.8,��
2018/02/05,05:00,0.337,0.203,0.332,0.318,0.300,0.167,0.101,�k�k��,1.8,��
2018/02/05,05:10,0.335,0.203,0.335,0.316,0.301,0.168,0.101,�k��,2.0,��
2018/02/05,05:20,0.336,0.203,0.334,0.317,0.301,0.169,0.101,�k�k��,1.2,��
2018/02/05,05:30,0.335,0.203,0.335,0.318,0.303,0.167,0.101,�k,2.1,��
2018/02/05,05:40,0.335,0.203,0.335,0.316,0.303,0.168,0.101,�k��,3.2,��
2018/02/05,05:50,0.336,0.203,0.334,0.318,0.302,0.168,0.101,�k�k��,4.4,��
2018/02/05,06:00,0.335,0.204,0.334,0.318,0.301,0.168,0.101,�k�k��,4.1,��
2018/02/05,06:10,0.336,0.203,0.334,0.317,0.303,0.168,0.101,�k�k��,3.7,��
2018/02/05,06:20,0.337,0.203,0.334,0.317,0.300,0.167,0.100,�k,2.6,��
2018/02/05,06:30,0.334,0.203,0.334,0.318,0.301,0.167,0.101,�k�k��,1.4,��
2018/02/05,06:40,0.335,0.203,0.334,0.318,0.301,0.167,0.101,�k�k��,2.2,��
2018/02/05,06:50,0.334,0.203,0.333,0.317,0.302,0.168,0.100,�k�k��,3.0,��
2018/02/05,07:00,0.337,0.204,0.335,0.317,0.301,0.167,0.102,�k�k��,3.7,��
2018/02/05,07:10,0.334,0.203,0.334,0.317,0.302,0.167,0.101,�k�k��,1.9,��
2018/02/05,07:20,0.335,0.203,0.335,0.319,0.301,0.168,0.100,���k��,3.9,��
2018/02/05,07:30,0.334,0.203,0.333,0.318,0.300,0.168,0.101,�k��,5.8,��
2018/02/05,07:40,0.334,0.202,0.334,0.316,0.300,0.167,0.101,���k��,8.1,��
2018/02/05,07:50,0.335,0.203,0.334,0.316,0.301,0.168,0.100,���k��,9.2,��
2018/02/05,08:00,0.334,0.203,0.335,0.317,0.301,0.167,0.101,���k��,9.5,��
2018/02/05,08:10,0.336,0.203,0.333,0.318,0.302,0.168,0.101,���k��,8.8,��
2018/02/05,08:20,0.335,0.203,0.333,0.317,0.302,0.168,0.102,���k��,8.1,��
2018/02/05,08:30,0.334,0.203,0.334,0.317,0.302,0.169,0.101,��,8.8,��
2018/02/05,08:40,0.335,0.204,0.334,0.317,0.303,0.169,0.101,���k��,7.1,��
2018/02/05,08:50,0.336,0.205,0.334,0.317,0.302,0.168,0.101,���k��,8.7,��
2018/02/05,09:00,0.335,0.203,0.333,0.317,0.303,0.168,0.101,���k��,8.8,��
2018/02/05,09:10,0.337,0.204,0.333,0.315,0.303,0.167,0.100,��,8.5,��
2018/02/05,09:20,0.338,0.203,0.335,0.317,0.303,0.169,0.101,��,7.1,��
2018/02/05,09:30,0.335,0.202,0.334,0.316,0.303,0.168,0.101,��,6.8,��
2018/02/05,09:40,0.335,0.203,0.334,0.316,0.304,0.167,0.100,��,6.4,��
2018/02/05,09:50,0.335,0.203,0.336,0.316,0.303,0.167,0.101,���k��,4.9,��
2018/02/05,10:00,0.334,0.202,0.333,0.316,0.304,0.167,0.101,��,4.5,��
2018/02/05,10:10,0.333,0.203,0.334,0.315,0.302,0.168,0.101,��,6.5,��
2018/02/05,10:20,0.336,0.203,0.335,0.317,0.302,0.167,0.101,��,7.8,��
2018/02/05,10:30,0.333,0.203,0.335,0.316,0.302,0.168,0.101,�k��,5.3,��
2018/02/05,10:40,0.335,0.203,0.335,0.317,0.301,0.169,0.101,���k��,6.9,��
2018/02/05,10:50,0.335,0.204,0.335,0.318,0.303,0.168,0.101,���k��,4.5,��
2018/02/05,11:00,0.336,0.203,0.333,0.316,0.303,0.168,0.101,���k��,3.3,��
2018/02/05,11:10,0.333,0.203,0.335,0.318,0.304,0.167,0.102,�k��,1.3,��
2018/02/05,11:20,0.335,0.204,0.336,0.316,0.304,0.169,0.101,�k��,1.2,��
2018/02/05,11:30,0.336,0.203,0.335,0.316,0.303,0.167,0.101,-,CALM,��
2018/02/05,11:40,0.334,0.204,0.333,0.319,0.304,0.168,0.102,-,CALM,��
2018/02/05,11:50,0.336,0.205,0.334,0.317,0.305,0.169,0.101,���쓌,0.9,��
2018/02/05,12:00,0.337,0.202,0.333,0.317,0.304,0.168,0.100,���k��,3.1,��
2018/02/05,12:10,0.334,0.204,0.333,0.319,0.305,0.169,0.101,���k��,2.7,��
2018/02/05,12:20,0.334,0.204,0.334,0.317,0.304,0.168,0.102,���k��,3.5,��
2018/02/05,12:30,0.336,0.203,0.333,0.317,0.303,0.167,0.102,��,2.0,��
2018/02/05,12:40,0.334,0.203,0.333,0.316,0.303,0.169,0.101,-,CALM,��
2018/02/05,12:50,0.333,0.205,0.334,0.318,0.301,0.168,0.101,���쓌,2.0,��
2018/02/05,13:00,0.335,0.203,0.334,0.319,0.304,0.167,0.102,��,3.2,��
2018/02/05,13:10,0.334,0.203,0.333,0.319,0.304,0.168,0.102,��,1.6,��
2018/02/05,13:20,0.334,0.204,0.335,0.316,0.303,0.169,0.102,��,2.6,��
2018/02/05,13:30,0.335,0.205,0.336,0.319,0.304,0.169,0.101,���쓌,1.1,��
2018/02/05,13:40,0.335,0.204,0.333,0.317,0.303,0.169,0.101,��,1.6,��
2018/02/05,13:50,0.335,0.203,0.334,0.317,0.304,0.168,0.101,���k��,1.5,��
2018/02/05,14:00,0.336,0.204,0.334,0.318,0.302,0.170,0.101,���k��,2.0,��
2018/02/05,14:10,0.337,0.203,0.334,0.318,0.304,0.168,0.102,���쓌,2.2,��
2018/02/05,14:20,0.335,0.204,0.335,0.318,0.302,0.169,0.102,���쓌,1.7,��
2018/02/05,14:30,0.335,0.204,0.335,0.319,0.303,0.168,0.102,��쓌,0.9,��
2018/02/05,14:40,0.337,0.205,0.334,0.321,0.304,0.168,0.102,�쓌,4.9,�L
2018/02/05,14:50,0.337,0.204,0.335,0.319,0.302,0.169,0.102,���쓌,4.5,�L
2018/02/05,15:00,0.336,0.205,0.335,0.319,0.304,0.169,0.103,��,2.4,�L
2018/02/05,15:10,0.338,0.206,0.336,0.319,0.306,0.171,0.103,��,2.2,�L
2018/02/05,15:20,0.339,0.207,0.335,0.322,0.303,0.170,0.103,���쓌,1.1,�L
2018/02/05,15:30,0.339,0.207,0.336,0.320,0.304,0.171,0.103,�쐼,3.8,�L
2018/02/05,15:40,0.339,0.207,0.337,0.321,0.305,0.171,0.104,��쐼,2.4,�L
2018/02/05,15:50,0.340,0.208,0.339,0.321,0.305,0.171,0.103,�쐼,3.1,�L
2018/02/05,16:00,0.340,0.207,0.338,0.321,0.305,0.171,0.103,���쐼,2.1,�L
2018/02/05,16:10,0.342,0.207,0.336,0.321,0.304,0.170,0.103,-,CALM,��
2018/02/05,16:20,0.339,0.206,0.336,0.321,0.304,0.170,0.103,�k�k��,1.2,��
2018/02/05,16:30,0.337,0.206,0.336,0.319,0.304,0.170,0.102,�k,1.2,��
2018/02/05,16:40,0.337,0.206,0.337,0.318,0.304,0.169,0.102,�k,2.0,��
2018/02/05,16:50,0.339,0.205,0.335,0.320,0.303,0.169,0.103,�k�k��,2.4,��
2018/02/05,17:00,0.338,0.205,0.335,0.319,0.304,0.169,0.102,�k�k��,1.4,��
2018/02/05,17:10,0.339,0.205,0.335,0.319,0.303,0.168,0.101,�k��,2.8,�L
2018/02/05,17:20,0.337,0.205,0.336,0.319,0.304,0.169,0.102,�k��,2.3,��
2018/02/05,17:30,0.337,0.205,0.334,0.320,0.303,0.169,0.102,�k�k��,2.2,��
2018/02/05,17:40,0.336,0.204,0.334,0.319,0.303,0.169,0.102,�k�k��,2.3,��
2018/02/05,17:50,0.336,0.205,0.333,0.319,0.303,0.169,0.102,�k�k��,1.7,��
2018/02/05,18:00,0.335,0.205,0.334,0.319,0.302,0.169,0.102,�k�k��,1.1,��
2018/02/05,18:10,0.336,0.204,0.335,0.319,0.303,0.168,0.100,-,CALM,��
2018/02/05,18:20,0.338,0.204,0.334,0.319,0.303,0.168,0.102,-,CALM,��
2018/02/05,18:30,0.337,0.204,0.334,0.318,0.303,0.168,0.102,�k�k��,1.1,��
2018/02/05,18:40,0.335,0.204,0.334,0.319,0.303,0.169,0.102,�k�k��,1.1,��
2018/02/05,18:50,0.335,0.204,0.336,0.319,0.302,0.168,0.102,�k,1.0,��
2018/02/05,19:00,0.336,0.205,0.333,0.318,0.301,0.168,0.102,�k,1.3,��
2018/02/05,19:10,0.335,0.203,0.335,0.317,0.301,0.167,0.101,�k�k��,1.3,��
2018/02/05,19:20,0.336,0.204,0.334,0.317,0.303,0.168,0.101,�k�k��,1.2,��
2018/02/05,19:30,0.336,0.204,0.335,0.318,0.303,0.168,0.102,�k,1.1,�L
2018/02/05,19:40,0.336,0.204,0.336,0.318,0.303,0.169,0.102,�k��,0.6,�L
2018/02/05,19:50,0.337,0.205,0.335,0.319,0.303,0.170,0.104,-,CALM,�L
2018/02/05,20:00,0.339,0.207,0.337,0.321,0.307,0.171,0.106,���쓌,1.0,�L
2018/02/05,20:10,0.339,0.209,0.338,0.323,0.306,0.174,0.108,��,0.6,�L
2018/02/05,20:20,0.341,0.210,0.339,0.323,0.306,0.174,0.109,�k�k��,0.8,�L
2018/02/05,20:30,0.341,0.211,0.339,0.322,0.306,0.174,0.109,���쐼,1.0,�L
2018/02/05,20:40,0.341,0.210,0.338,0.323,0.307,0.174,0.110,-,CALM,�L
2018/02/05,20:50,0.343,0.210,0.339,0.323,0.308,0.175,0.111,-,CALM,�L
2018/02/05,21:00,0.345,0.213,0.340,0.325,0.307,0.177,0.115,��,0.8,�L
2018/02/05,21:10,0.345,0.215,0.339,0.327,0.309,0.181,0.117,�k�k��,1.0,�L
2018/02/05,21:20,0.347,0.216,0.343,0.327,0.312,0.183,0.119,�k,0.7,�L
2018/02/05,21:30,0.348,0.216,0.344,0.329,0.313,0.184,0.119,-,CALM,�L
2018/02/05,21:40,0.348,0.217,0.343,0.328,0.313,0.183,0.118,-,CALM,�L
2018/02/05,21:50,0.347,0.217,0.343,0.326,0.310,0.182,0.117,�k,1.1,�L
2018/02/05,22:00,0.344,0.214,0.342,0.326,0.309,0.180,0.115,�k�k��,1.1,�L
2018/02/05,22:10,0.342,0.212,0.337,0.324,0.308,0.177,0.112,-,CALM,�L
2018/02/05,22:20,0.342,0.211,0.338,0.321,0.306,0.176,0.110,�k�k��,1.6,�L
2018/02/05,22:30,0.338,0.208,0.335,0.322,0.303,0.174,0.109,�k�k��,1.9,��
2018/02/05,22:40,0.336,0.207,0.336,0.320,0.303,0.173,0.107,�k,2.3,��
2018/02/05,22:50,0.336,0.206,0.334,0.319,0.302,0.171,0.106,�k,2.6,��
2018/02/05,23:00,0.337,0.206,0.334,0.319,0.303,0.171,0.105,�k,3.4,��
2018/02/05,23:10,0.336,0.205,0.337,0.318,0.302,0.170,0.104,�k,3.4,��
2018/02/05,23:20,0.334,0.205,0.334,0.317,0.301,0.169,0.104,�k,1.5,��
2018/02/05,23:30,0.333,0.205,0.333,0.316,0.301,0.168,0.103,�k,2.9,��
2018/02/05,23:40,0.334,0.205,0.334,0.317,0.299,0.168,0.103,�k,2.8,��
2018/02/05,23:50,0.335,0.203,0.331,0.317,0.301,0.169,0.102,�k�k��,2.9,��
